This is the latest recevied weather packets stored in our database for station/object IN3XSV-13. If no packets are shown the sender has not sent any weather packets the latest 10 day(s).
| Time | Temp. | Humidity | Pressure | Rain* | Wind** | Luminosity | Snow |
|---|---|---|---|---|---|---|---|
| 1788021761 | 27.22° C | 55% | 1007.8 hPa | 0 mm | - | - | - |
| 1788021461 | 27.78° C | 54% | 1007.8 hPa | 0 mm | - | - | - |
| 1788021161 | 27.78° C | 53% | 1007.7 hPa | 0 mm | - | - | - |
| 1788020861 | 27.78° C | 54% | 1007.7 hPa | 0 mm | - | - | - |
| 1788020561 | 27.78° C | 54% | 1007.8 hPa | 0 mm | - | - | - |
| 1788020261 | 27.78° C | 53% | 1007.7 hPa | 0 mm | - | - | - |
| 1788019961 | 28.33° C | 52% | 1007.7 hPa | 0 mm | - | - | - |
| 1788019661 | 28.89° C | 51% | 1007.6 hPa | 0 mm | - | - | - |
| 1788019361 | 28.89° C | 50% | 1007.5 hPa | 0 mm | - | - | - |
| 1788019061 | 29.44° C | 48% | 1007.6 hPa | 0 mm | - | - | - |
| 1788018761 | 30° C | 48% | 1007.6 hPa | 0 mm | - | - | - |
| 1788018461 | 29.44° C | 49% | 1007.6 hPa | 0 mm | - | - | - |
| 1788018161 | 30° C | 47% | 1007.5 hPa | 0 mm | - | - | - |
| 1788017861 | 30.56° C | 47% | 1007.4 hPa | 0 mm | - | - | - |
| 1788017561 | 31.11° C | 46% | 1007.3 hPa | 0 mm | - | - | - |
| 1788017261 | 31.11° C | 47% | 1007.4 hPa | 0 mm | - | - | - |
| 1788016961 | 30.56° C | 47% | 1007.5 hPa | 0 mm | - | - | - |
| 1788016661 | 30.56° C | 47% | 1007.5 hPa | 0 mm | - | - | - |
| 1788016361 | 30.56° C | 47% | 1007.3 hPa | 0 mm | - | - | - |
| 1788016061 | 30.56° C | 47% | 1007.4 hPa | 0 mm | - | - | - |
| 1788015761 | 30.56° C | 47% | 1007.3 hPa | 0 mm | - | - | - |
| 1788015461 | 30.56° C | 47% | 1007.3 hPa | 0 mm | - | - | - |
| 1788015161 | 30.56° C | 47% | 1007.5 hPa | 0 mm | - | - | - |
| 1788014861 | 30° C | 47% | 1007.4 hPa | 0 mm | - | - | - |
| 1788014561 | 30° C | 47% | 1007.4 hPa | 0 mm | - | - | - |
* Rain latest hour (hover to see other rain measurements)
** Current wind speed in m/s (hover to see current wind gust speed)